ZTF彗星

C/2020 V2 ( ZTF )

English version
Home page
Updated on February 21, 2021

---------------------------------------------------------------------

・ プロフィール

発見日 2020年11月2日
発見光度 19.0等
発見者 Zwicky Transient Facility

・ 写真集

・ 軌道要素

Epoch 2023 May 16.0 TT = JDT 2460080.5
T 2023 May 8.62793 TT                                   Rudenko
q   2.2278380            (2000.0)            P               Q
z  -0.0004879      Peri.  162.43246     +0.69789281     +0.59388956
 +/-0.0000191      Node   212.37112     +0.53386571     -0.05879570
e   1.0010869      Incl.  131.61144     +0.47742333     -0.80239533
From 208 observations 2020 Apr. 18-2021 Jan. 23, mean residual 0".4.

・ 星図

・ 光度変化

        m1 = 4.5 + 5 logΔ + 10.0 log r

---------------------------------------------------------------------

軌道要素はM.P.E.C. 2021-B143に掲載されたものです。
星図はステラナビゲータ Ver.10 (アストロアーツ) で作成したものです。
光度グラフはComet for Windowsで作成したものです。

---------------------------------------------------------------------

Copyright(C) Seiichi Yoshida (comet@aerith.net). All rights reserved.